CCM6PY LFKJ-EDDM

Flight info

Callsign CCM6PY
Flight time 1h 28m
Altitude 26000
Route TORTU DCT GOLAS DCT NESTI DCT SOTOV/N0429F240 T101 BETOS BETOS1A
Aircraft A320/M-SDE3FGHIRWY/LB1

Departure

Time 2026-05-09 11:53
Airport Ajaccio Napoléon Bonaparte airport (LFKJ)

Arrival

Time 2026-05-09 13:22
Airport Munich Airport (EDDM)
Time Latitude Longitude Altitude Speed Heading
2026-05-09 11:00 41.92026 8.79605 21 ft 0 kts 345°
2026-05-09 11:41 41.92019 8.79607 22 ft 4 kts 345°
2026-05-09 11:42 41.91993 8.79617 24 ft 4 kts 345°
2026-05-09 11:42 41.91984 8.79620 22 ft 0 kts 345°
2026-05-09 11:45 41.92001 8.79632 23 ft 6 kts 43°
2026-05-09 11:45 41.92052 8.79702 23 ft 15 kts 26°
2026-05-09 11:46 41.92170 8.79774 23 ft 22 kts 24°
2026-05-09 11:46 41.92304 8.79856 22 ft 20 kts 26°
2026-05-09 11:46 41.92424 8.79933 21 ft 18 kts 25°
2026-05-09 11:46 41.92533 8.80000 22 ft 16 kts 25°
2026-05-09 11:47 41.92631 8.80062 21 ft 15 kts 25°
2026-05-09 11:47 41.92719 8.80117 21 ft 13 kts 25°
2026-05-09 11:47 41.92794 8.80181 21 ft 15 kts 39°
2026-05-09 11:47 41.92878 8.80292 21 ft 19 kts 45°
2026-05-09 11:48 41.92962 8.80420 22 ft 18 kts 69°
2026-05-09 11:48 41.92965 8.80463 22 ft 0 kts 99°
2026-05-09 11:51 41.92965 8.80464 22 ft 1 kts 99°
2026-05-09 11:51 41.92949 8.80525 25 ft 11 kts 106°
2026-05-09 11:52 41.92972 8.80601 25 ft 17 kts 44°
2026-05-09 11:52 41.93087 8.80655 26 ft 15 kts 356°
2026-05-09 11:52 41.93159 8.80684 27 ft 12 kts 92°
2026-05-09 11:52 41.93087 8.80682 30 ft 15 kts 205°
2026-05-09 11:53 41.92842 8.80525 27 ft 77 kts 205°
2026-05-09 11:53 41.92112 8.80067 28 ft 150 kts 205°
2026-05-09 11:53 41.91116 8.79399 621 ft 164 kts 213°
2026-05-09 11:53 41.90323 8.78361 1527 ft 165 kts 234°
2026-05-09 11:54 41.89656 8.76950 2141 ft 186 kts 241°
2026-05-09 11:54 41.89022 8.75396 2860 ft 199 kts 241°
2026-05-09 11:54 41.88342 8.73707 3625 ft 212 kts 240°
2026-05-09 11:54 41.87610 8.71916 4430 ft 227 kts 239°
2026-05-09 11:55 41.86823 8.70019 5256 ft 234 kts 237°
2026-05-09 11:56 41.89684 8.61064 8876 ft 263 kts 339°
2026-05-09 11:56 41.91471 8.60569 9707 ft 265 kts 358°
2026-05-09 11:56 41.93359 8.60862 10116 ft 286 kts 17°
2026-05-09 11:57 41.95238 8.62010 10371 ft 309 kts 27°
2026-05-09 11:57 41.97224 8.63397 10586 ft 333 kts 27°
2026-05-09 11:57 41.99358 8.64889 10775 ft 357 kts 27°
2026-05-09 11:57 42.01627 8.66472 10998 ft 375 kts 27°
2026-05-09 11:58 42.03971 8.68105 11557 ft 382 kts 27°
2026-05-09 11:58 42.06347 8.69760 12202 ft 387 kts 26°
2026-05-09 11:58 42.08749 8.71431 12867 ft 391 kts 26°
2026-05-09 11:58 42.11181 8.73123 13541 ft 395 kts 26°
2026-05-09 11:59 42.13634 8.74830 14171 ft 399 kts 25°
2026-05-09 11:59 42.16115 8.76552 14756 ft 403 kts 26°
2026-05-09 11:59 42.18618 8.78290 15292 ft 407 kts 26°
2026-05-09 11:59 42.21145 8.80050 15837 ft 411 kts 26°
2026-05-09 12:00 42.23726 8.81724 16362 ft 413 kts 20°
2026-05-09 12:00 42.26446 8.82829 16863 ft 415 kts
2026-05-09 12:00 42.29351 8.83320 17390 ft 417 kts
2026-05-09 12:00 42.32216 8.83628 17935 ft 420 kts
2026-05-09 12:01 42.35137 8.83949 18436 ft 424 kts
2026-05-09 12:01 42.38087 8.84282 18863 ft 427 kts
2026-05-09 12:01 42.41057 8.84621 19310 ft 430 kts
2026-05-09 12:01 42.44045 8.84961 19756 ft 432 kts
2026-05-09 12:02 42.47056 8.85301 20196 ft 435 kts
2026-05-09 12:02 42.50080 8.85643 20644 ft 438 kts
2026-05-09 12:02 42.53125 8.85987 21074 ft 440 kts
2026-05-09 12:02 42.56190 8.86334 21501 ft 443 kts
2026-05-09 12:03 42.59278 8.86682 21931 ft 446 kts
2026-05-09 12:03 42.62379 8.87034 22332 ft 449 kts
2026-05-09 12:03 42.65508 8.87389 22721 ft 452 kts
2026-05-09 12:03 42.68649 8.87742 23114 ft 454 kts
2026-05-09 12:04 42.71806 8.88098 23509 ft 456 kts
2026-05-09 12:04 42.74979 8.88458 23839 ft 459 kts
2026-05-09 12:04 42.78166 8.88822 24148 ft 461 kts
2026-05-09 12:04 42.81370 8.89190 24450 ft 464 kts
2026-05-09 12:05 42.84596 8.89564 24751 ft 466 kts
2026-05-09 12:05 42.87836 8.89938 25041 ft 469 kts
2026-05-09 12:05 42.91094 8.90311 25346 ft 471 kts
2026-05-09 12:05 42.94369 8.90686 25637 ft 473 kts
2026-05-09 12:06 42.97658 8.91063 25906 ft 475 kts
2026-05-09 12:06 43.00960 8.91442 26028 ft 478 kts
2026-05-09 12:06 43.04295 8.91827 26051 ft 482 kts
2026-05-09 12:06 43.07643 8.92214 26048 ft 483 kts
2026-05-09 12:07 43.10961 8.92595 26054 ft 489 kts
2026-05-09 12:07 43.14386 8.92987 26052 ft 496 kts
2026-05-09 12:07 43.17846 8.93384 26058 ft 502 kts
2026-05-09 12:07 43.21341 8.93787 26057 ft 505 kts
2026-05-09 12:08 43.24839 8.94193 26062 ft 505 kts
2026-05-09 12:08 43.28351 8.94603 26076 ft 505 kts
2026-05-09 12:08 43.31852 8.95013 26059 ft 504 kts
2026-05-09 12:08 43.35344 8.95431 26065 ft 504 kts
2026-05-09 12:09 43.38814 8.96276 26062 ft 509 kts 11°
2026-05-09 12:09 43.42183 8.97850 26066 ft 514 kts 20°
2026-05-09 12:09 43.45462 8.99846 26067 ft 515 kts 21°
2026-05-09 12:10 43.55294 9.05842 26088 ft 514 kts 20°
2026-05-09 12:10 43.58566 9.07836 26087 ft 514 kts 20°
2026-05-09 12:10 43.61841 9.09832 26083 ft 513 kts 20°
2026-05-09 12:11 43.65104 9.11822 26088 ft 513 kts 20°
2026-05-09 12:11 43.68366 9.13818 26097 ft 512 kts 20°
2026-05-09 12:11 43.71621 9.15813 26096 ft 512 kts 20°
2026-05-09 12:11 43.74875 9.17813 26094 ft 511 kts 20°
2026-05-09 12:12 43.78125 9.19812 26094 ft 511 kts 20°
2026-05-09 12:12 43.81376 9.21812 26091 ft 511 kts 20°
2026-05-09 12:12 43.84577 9.23786 26087 ft 510 kts 20°
2026-05-09 12:12 43.87818 9.25785 26096 ft 510 kts 20°
2026-05-09 12:13 43.91056 9.27785 26086 ft 509 kts 20°
2026-05-09 12:13 43.94290 9.29785 26083 ft 509 kts 20°
2026-05-09 12:13 43.97525 9.31786 26076 ft 509 kts 20°
2026-05-09 12:13 44.00761 9.33788 26072 ft 509 kts 20°
2026-05-09 12:14 44.03994 9.35787 26085 ft 509 kts 20°
2026-05-09 12:14 44.07226 9.37790 26084 ft 509 kts 20°
2026-05-09 12:14 44.10452 9.39795 26087 ft 508 kts 20°
2026-05-09 12:14 44.13682 9.41808 26086 ft 508 kts 20°
2026-05-09 12:15 44.16908 9.43825 26080 ft 508 kts 20°
2026-05-09 12:15 44.20132 9.45840 26077 ft 508 kts 20°
2026-05-09 12:15 44.23355 9.47852 26089 ft 508 kts 20°
2026-05-09 12:15 44.26583 9.49868 26091 ft 507 kts 20°
2026-05-09 12:16 44.29801 9.51882 26093 ft 507 kts 20°
2026-05-09 12:16 44.33018 9.53899 26090 ft 506 kts 20°
2026-05-09 12:16 44.36228 9.55913 26089 ft 505 kts 20°
2026-05-09 12:16 44.39435 9.57925 26084 ft 505 kts 20°
2026-05-09 12:17 44.42641 9.59941 26075 ft 505 kts 20°
2026-05-09 12:17 44.45845 9.61961 26081 ft 505 kts 20°
2026-05-09 12:17 44.49060 9.63941 26072 ft 504 kts 19°
2026-05-09 12:17 44.52292 9.65852 26075 ft 504 kts 18°
2026-05-09 12:18 44.55534 9.67723 26076 ft 504 kts 18°
2026-05-09 12:18 44.58777 9.69579 26090 ft 504 kts 18°
2026-05-09 12:18 44.62021 9.71443 26086 ft 504 kts 18°
2026-05-09 12:18 44.65268 9.73330 26083 ft 504 kts 18°
2026-05-09 12:19 44.68501 9.75230 26078 ft 504 kts 18°
2026-05-09 12:19 44.71693 9.77119 26077 ft 504 kts 18°
2026-05-09 12:19 44.74925 9.79038 26070 ft 504 kts 18°
2026-05-09 12:19 44.78159 9.80959 26084 ft 504 kts 18°
2026-05-09 12:20 44.81392 9.82880 26085 ft 504 kts 18°
2026-05-09 12:20 44.84625 9.84797 26082 ft 504 kts 18°
2026-05-09 12:20 44.87859 9.86716 26080 ft 504 kts 18°
2026-05-09 12:20 44.91087 9.88632 26078 ft 504 kts 18°
2026-05-09 12:21 44.94317 9.90549 26076 ft 504 kts 18°
2026-05-09 12:21 44.97547 9.92468 26085 ft 503 kts 18°
2026-05-09 12:21 45.00777 9.94391 26088 ft 503 kts 18°
2026-05-09 12:21 45.04003 9.96320 26084 ft 503 kts 18°
2026-05-09 12:22 45.07226 9.98252 26084 ft 503 kts 18°
2026-05-09 12:22 45.10451 10.00192 26084 ft 503 kts 18°
2026-05-09 12:22 45.13678 10.02132 26080 ft 503 kts 18°
2026-05-09 12:22 45.16905 10.04074 26101 ft 503 kts 18°
2026-05-09 12:23 45.20121 10.06012 26102 ft 502 kts 17°
2026-05-09 12:23 45.23336 10.07950 26094 ft 502 kts 17°
2026-05-09 12:23 45.26550 10.09885 26086 ft 502 kts 17°
2026-05-09 12:23 45.29764 10.11818 26078 ft 501 kts 17°
2026-05-09 12:24 45.32975 10.13752 26095 ft 501 kts 17°
2026-05-09 12:24 45.36185 10.15689 26086 ft 501 kts 17°
2026-05-09 12:24 45.39351 10.17607 26080 ft 501 kts 17°
2026-05-09 12:24 45.42557 10.19555 26077 ft 500 kts 17°
2026-05-09 12:25 45.45752 10.21498 26073 ft 500 kts 17°
2026-05-09 12:25 45.48996 10.23469 26068 ft 499 kts 17°
2026-05-09 12:25 45.52147 10.25389 26074 ft 499 kts 17°
2026-05-09 12:25 45.55344 10.27341 26078 ft 499 kts 17°
2026-05-09 12:26 45.58529 10.29287 26087 ft 499 kts 17°
2026-05-09 12:26 45.61719 10.31234 26081 ft 498 kts 17°
2026-05-09 12:26 45.64907 10.33183 26101 ft 498 kts 17°
2026-05-09 12:26 45.68090 10.35133 26093 ft 498 kts 17°
2026-05-09 12:27 45.71271 10.37087 26156 ft 498 kts 17°
2026-05-09 12:27 45.74456 10.39048 26152 ft 498 kts 17°
2026-05-09 12:27 45.77637 10.41007 26154 ft 497 kts 17°
2026-05-09 12:27 45.80818 10.42969 26149 ft 497 kts 17°
2026-05-09 12:28 45.83978 10.44984 26153 ft 497 kts 18°
2026-05-09 12:28 45.87117 10.47070 26166 ft 498 kts 19°
2026-05-09 12:28 45.90251 10.49212 26187 ft 498 kts 19°
2026-05-09 12:28 45.93371 10.51372 26192 ft 498 kts 19°
2026-05-09 12:29 45.96493 10.53532 26189 ft 497 kts 19°
2026-05-09 12:29 45.99614 10.55676 26187 ft 497 kts 19°
2026-05-09 12:29 46.02739 10.57804 26192 ft 497 kts 19°
2026-05-09 12:29 46.05863 10.59915 26177 ft 496 kts 18°
2026-05-09 12:30 46.08994 10.62027 26204 ft 496 kts 19°
2026-05-09 12:30 46.12118 10.64132 26206 ft 496 kts 19°
2026-05-09 12:30 46.18371 10.68381 26203 ft 496 kts 19°
2026-05-09 12:31 46.21491 10.70513 26206 ft 496 kts 19°
2026-05-09 12:31 46.27687 10.74763 26201 ft 497 kts 19°
2026-05-09 12:31 46.30847 10.76933 26194 ft 496 kts 19°
2026-05-09 12:32 46.33972 10.79079 26202 ft 496 kts 19°
2026-05-09 12:32 46.37088 10.81215 26199 ft 496 kts 19°
2026-05-09 12:32 46.40207 10.83355 26192 ft 495 kts 19°
2026-05-09 12:32 46.43322 10.85495 26175 ft 497 kts 19°
2026-05-09 12:33 46.46447 10.87645 26181 ft 497 kts 21°
2026-05-09 12:33 46.49524 10.89769 26184 ft 496 kts 21°
2026-05-09 12:33 46.52641 10.91927 26186 ft 496 kts 21°
2026-05-09 12:33 46.55752 10.94080 26172 ft 494 kts 21°
2026-05-09 12:34 46.58855 10.96229 26169 ft 494 kts 21°
2026-05-09 12:34 46.61958 10.98381 26165 ft 494 kts 21°
2026-05-09 12:34 46.65043 11.00527 26115 ft 485 kts 21°
2026-05-09 12:34 46.68062 11.02637 25835 ft 478 kts 22°
2026-05-09 12:35 46.71056 11.04725 25466 ft 476 kts 22°
2026-05-09 12:35 46.74044 11.06803 25104 ft 475 kts 22°
2026-05-09 12:35 46.77031 11.08880 24740 ft 475 kts 22°
2026-05-09 12:35 46.80012 11.10959 24390 ft 475 kts 22°
2026-05-09 12:36 46.81990 11.12343 24154 ft 475 kts 23°
2026-05-09 12:36 46.84974 11.14433 23783 ft 475 kts 22°
2026-05-09 12:36 46.88026 11.16155 23305 ft 463 kts 11°
2026-05-09 12:36 46.91144 11.16879 22802 ft 446 kts
2026-05-09 12:37 46.94195 11.17401 22279 ft 437 kts
2026-05-09 12:37 46.97186 11.17905 21777 ft 429 kts
2026-05-09 12:37 47.00133 11.18395 21284 ft 425 kts
2026-05-09 12:37 47.03062 11.18881 20783 ft 423 kts
2026-05-09 12:38 47.05970 11.19359 20315 ft 419 kts
2026-05-09 12:38 47.08866 11.19837 20062 ft 418 kts
2026-05-09 12:38 47.11753 11.20319 20069 ft 418 kts
2026-05-09 12:38 47.14639 11.20803 20071 ft 418 kts
2026-05-09 12:39 47.17532 11.21287 20059 ft 418 kts
2026-05-09 12:39 47.20418 11.21772 20065 ft 418 kts
2026-05-09 12:39 47.23301 11.22262 20062 ft 417 kts
2026-05-09 12:39 47.26184 11.22756 20058 ft 416 kts
2026-05-09 12:40 47.29064 11.23249 20053 ft 416 kts
2026-05-09 12:40 47.31933 11.23738 20052 ft 415 kts
2026-05-09 12:40 47.34806 11.24222 20060 ft 416 kts
2026-05-09 12:40 47.37684 11.24707 20055 ft 416 kts
2026-05-09 12:41 47.40561 11.25194 20052 ft 416 kts
2026-05-09 12:41 47.43434 11.25680 20054 ft 415 kts
2026-05-09 12:41 47.46308 11.26166 19954 ft 415 kts
2026-05-09 12:41 47.49145 11.26650 19529 ft 407 kts
2026-05-09 12:42 47.51938 11.27133 19097 ft 400 kts
2026-05-09 12:42 47.54675 11.27606 18670 ft 394 kts
2026-05-09 12:42 47.57378 11.28070 18230 ft 389 kts
2026-05-09 12:42 47.60050 11.28525 17734 ft 384 kts
2026-05-09 12:43 47.62642 11.28964 17280 ft 378 kts
2026-05-09 12:43 47.65277 11.29412 16801 ft 373 kts
2026-05-09 12:43 47.67836 11.29850 16354 ft 369 kts
2026-05-09 12:43 47.70375 11.30288 15895 ft 366 kts
2026-05-09 12:44 47.72893 11.30722 15440 ft 363 kts
2026-05-09 12:44 47.75395 11.31152 15000 ft 360 kts
2026-05-09 12:44 47.77870 11.31577 14555 ft 356 kts
2026-05-09 12:44 47.80257 11.31990 14131 ft 342 kts
2026-05-09 12:45 47.82572 11.32395 13684 ft 329 kts
2026-05-09 12:45 47.84836 11.32791 13202 ft 317 kts
2026-05-09 12:45 47.86971 11.33161 12701 ft 310 kts
2026-05-09 12:45 47.89100 11.33518 12197 ft 306 kts
2026-05-09 12:46 47.91167 11.34196 11686 ft 305 kts 23°
2026-05-09 12:46 47.92896 11.35998 11192 ft 306 kts 42°
2026-05-09 12:46 47.94417 11.38212 10691 ft 305 kts 44°
2026-05-09 12:46 47.95911 11.40456 10230 ft 305 kts 44°
2026-05-09 12:47 47.97389 11.42681 10073 ft 299 kts 44°
2026-05-09 12:47 47.98850 11.44884 10082 ft 298 kts 44°
2026-05-09 12:47 48.00309 11.47081 10086 ft 298 kts 44°
2026-05-09 12:47 48.01771 11.49287 9986 ft 301 kts 44°
2026-05-09 12:48 48.03247 11.51514 9536 ft 302 kts 44°
2026-05-09 12:48 48.04823 11.53574 9089 ft 301 kts 29°
2026-05-09 12:48 48.06773 11.54583 8653 ft 297 kts
2026-05-09 12:48 48.08822 11.54921 8204 ft 293 kts
2026-05-09 12:49 48.10818 11.55167 7779 ft 282 kts
2026-05-09 12:49 48.12741 11.55385 7366 ft 273 kts
2026-05-09 12:49 48.14606 11.55578 6949 ft 264 kts
2026-05-09 12:49 48.16406 11.55744 6540 ft 256 kts
2026-05-09 12:50 48.18163 11.55886 6109 ft 250 kts
2026-05-09 12:50 48.19885 11.55909 5693 ft 247 kts 352°
2026-05-09 12:50 48.21436 11.54908 5269 ft 245 kts 320°
2026-05-09 12:50 48.22380 11.52851 5090 ft 243 kts 287°
2026-05-09 12:51 48.22675 11.50334 5095 ft 247 kts 274°
2026-05-09 12:51 48.22645 11.47765 5090 ft 245 kts 265°
2026-05-09 12:51 48.22510 11.45255 5085 ft 245 kts 265°
2026-05-09 12:51 48.22357 11.42701 5086 ft 246 kts 264°
2026-05-09 12:52 48.22202 11.40144 5036 ft 248 kts 264°
2026-05-09 12:52 48.22044 11.37566 4781 ft 246 kts 264°
2026-05-09 12:52 48.21889 11.35022 4529 ft 246 kts 264°
2026-05-09 12:52 48.21735 11.32466 4270 ft 245 kts 264°
2026-05-09 12:53 48.21582 11.29928 4052 ft 243 kts 265°
2026-05-09 12:53 48.21424 11.27418 3978 ft 242 kts 264°
2026-05-09 12:53 48.21266 11.24902 3990 ft 244 kts 264°
2026-05-09 12:53 48.21108 11.22382 3987 ft 242 kts 264°
2026-05-09 12:54 48.20951 11.19862 3989 ft 244 kts 264°
2026-05-09 12:54 48.20795 11.17333 3993 ft 243 kts 265°
2026-05-09 12:54 48.20974 11.14838 3982 ft 243 kts 292°
2026-05-09 12:54 48.21971 11.12829 3982 ft 241 kts 325°
2026-05-09 12:55 48.23496 11.11908 3990 ft 237 kts 357°
2026-05-09 12:55 48.25082 11.12325 3992 ft 232 kts 30°
2026-05-09 12:55 48.26293 11.13871 3991 ft 230 kts 51°
2026-05-09 12:55 48.27290 11.15749 3989 ft 230 kts 54°
2026-05-09 12:56 48.28240 11.17680 3989 ft 230 kts 57°
2026-05-09 12:56 48.29123 11.19681 3991 ft 230 kts 58°
2026-05-09 12:56 48.29763 11.21847 3985 ft 227 kts 78°
2026-05-09 12:56 48.30008 11.24155 3992 ft 226 kts 83°
2026-05-09 12:57 48.30188 11.26485 3987 ft 220 kts 84°
2026-05-09 12:57 48.30363 11.28684 3976 ft 209 kts 83°
2026-05-09 12:57 48.30533 11.30775 3987 ft 194 kts 83°
2026-05-09 12:57 48.30691 11.32711 3994 ft 181 kts 83°
2026-05-09 12:58 48.30841 11.34553 3992 ft 176 kts 83°
2026-05-09 12:58 48.30988 11.36363 3990 ft 174 kts 83°
2026-05-09 12:58 48.31135 11.38180 3988 ft 175 kts 84°
2026-05-09 12:58 48.31281 11.39986 3982 ft 174 kts 83°
2026-05-09 12:59 48.31427 11.41791 3998 ft 174 kts 83°
2026-05-09 12:59 48.31572 11.43595 3999 ft 175 kts 83°
2026-05-09 12:59 48.31717 11.45400 3996 ft 174 kts 83°
2026-05-09 12:59 48.31863 11.47215 4001 ft 174 kts 83°
2026-05-09 13:00 48.32008 11.49022 4005 ft 174 kts 83°
2026-05-09 13:00 48.32151 11.50810 4011 ft 173 kts 83°
2026-05-09 13:00 48.32294 11.52603 4001 ft 173 kts 83°
2026-05-09 13:00 48.32439 11.54419 4009 ft 176 kts 83°
2026-05-09 13:01 48.32584 11.56241 3923 ft 175 kts 83°
2026-05-09 13:01 48.32728 11.58057 3736 ft 174 kts 83°
2026-05-09 13:01 48.32870 11.59857 3525 ft 174 kts 83°
2026-05-09 13:01 48.33012 11.61646 3304 ft 172 kts 83°
2026-05-09 13:02 48.33153 11.63431 3077 ft 171 kts 84°
2026-05-09 13:02 48.33292 11.65203 2857 ft 171 kts 84°
2026-05-09 13:02 48.33427 11.66921 2634 ft 166 kts 84°
2026-05-09 13:02 48.33560 11.68623 2409 ft 162 kts 84°
2026-05-09 13:03 48.33689 11.70272 2181 ft 158 kts 83°
2026-05-09 13:03 48.33816 11.71914 1965 ft 158 kts 82°
2026-05-09 13:03 48.33941 11.73560 1771 ft 158 kts 82°
2026-05-09 13:03 48.34065 11.75175 1523 ft 153 kts 81°
2026-05-09 13:04 48.34198 11.76621 1504 ft 127 kts 78°
2026-05-09 13:04 48.34261 11.77940 1780 ft 138 kts 84°
2026-05-09 13:04 48.34343 11.79587 2230 ft 177 kts 85°
2026-05-09 13:04 48.34455 11.81583 2814 ft 201 kts 85°
2026-05-09 13:05 48.34606 11.83728 3490 ft 210 kts 83°
2026-05-09 13:05 48.34783 11.85880 4186 ft 214 kts 82°
2026-05-09 13:05 48.34999 11.88168 4957 ft 220 kts 82°
2026-05-09 13:05 48.35218 11.90488 5326 ft 229 kts 84°
2026-05-09 13:06 48.35228 11.92823 5336 ft 223 kts 104°
2026-05-09 13:06 48.34540 11.94903 5240 ft 224 kts 124°
2026-05-09 13:06 48.33632 11.96768 5116 ft 224 kts 126°
2026-05-09 13:06 48.32687 11.98631 4992 ft 224 kts 127°
2026-05-09 13:07 48.31685 12.00421 4864 ft 223 kts 134°
2026-05-09 13:07 48.30356 12.01573 4718 ft 225 kts 167°
2026-05-09 13:07 48.28781 12.01658 4573 ft 228 kts 182°
2026-05-09 13:07 48.27204 12.01430 4414 ft 229 kts 187°
2026-05-09 13:08 48.25759 12.00455 4260 ft 232 kts 218°
2026-05-09 13:08 48.24606 11.98758 4111 ft 232 kts 229°
2026-05-09 13:08 48.23633 11.96823 4003 ft 233 kts 235°
2026-05-09 13:08 48.22791 11.94737 4001 ft 236 kts 249°
2026-05-09 13:09 48.22344 11.92382 4133 ft 239 kts 258°
2026-05-09 13:09 48.22107 11.89894 4420 ft 243 kts 264°
2026-05-09 13:09 48.21936 11.87358 4752 ft 246 kts 264°
2026-05-09 13:09 48.21775 11.84795 4958 ft 246 kts 264°
2026-05-09 13:10 48.21649 11.82237 5001 ft 247 kts 270°
2026-05-09 13:10 48.21724 11.79667 5004 ft 247 kts 274°
2026-05-09 13:10 48.21849 11.77106 5004 ft 245 kts 274°
2026-05-09 13:10 48.21980 11.74561 5004 ft 244 kts 275°
2026-05-09 13:11 48.22108 11.72023 5008 ft 245 kts 274°
2026-05-09 13:11 48.22237 11.69472 4991 ft 246 kts 275°
2026-05-09 13:11 48.22365 11.66893 4749 ft 248 kts 275°
2026-05-09 13:11 48.22494 11.64312 4487 ft 247 kts 275°
2026-05-09 13:12 48.22618 11.61746 4237 ft 246 kts 274°
2026-05-09 13:12 48.22745 11.59197 4024 ft 244 kts 274°
2026-05-09 13:12 48.22874 11.56667 4005 ft 244 kts 275°
2026-05-09 13:12 48.22938 11.54154 3997 ft 243 kts 270°
2026-05-09 13:13 48.22932 11.51594 4005 ft 243 kts 269°
2026-05-09 13:13 48.22919 11.49088 3981 ft 244 kts 269°
2026-05-09 13:13 48.22906 11.46547 3987 ft 243 kts 269°
2026-05-09 13:13 48.22894 11.44017 3985 ft 242 kts 269°
2026-05-09 13:14 48.22876 11.41500 3981 ft 240 kts 269°
2026-05-09 13:14 48.22855 11.38976 3985 ft 243 kts 269°
2026-05-09 13:16 48.29256 11.35245 3987 ft 228 kts 58°
2026-05-09 13:16 48.30111 11.37241 3986 ft 228 kts 58°
2026-05-09 13:16 48.30961 11.39248 3979 ft 224 kts 61°
2026-05-09 13:16 48.31410 11.41428 4006 ft 218 kts 84°
2026-05-09 13:17 48.31582 11.43662 3997 ft 211 kts 83°
2026-05-09 13:17 48.31749 11.45784 3990 ft 197 kts 83°
2026-05-09 13:17 48.31906 11.47746 3993 ft 182 kts 83°
2026-05-09 13:17 48.32055 11.49605 4020 ft 177 kts 84°
2026-05-09 13:18 48.32200 11.51417 4010 ft 172 kts 83°
2026-05-09 13:18 48.32342 11.53211 4006 ft 174 kts 84°
2026-05-09 13:18 48.32485 11.55005 4004 ft 176 kts 83°
2026-05-09 13:18 48.32632 11.56851 3863 ft 176 kts 83°
2026-05-09 13:19 48.32774 11.58641 3683 ft 174 kts 83°
2026-05-09 13:19 48.32916 11.60433 3466 ft 172 kts 83°
2026-05-09 13:19 48.33056 11.62210 3233 ft 171 kts 84°
2026-05-09 13:19 48.33194 11.63964 3005 ft 164 kts 84°
2026-05-09 13:20 48.33326 11.65643 2798 ft 161 kts 84°
2026-05-09 13:20 48.33455 11.67285 2573 ft 156 kts 83°
2026-05-09 13:20 48.33582 11.68901 2369 ft 155 kts 83°
2026-05-09 13:20 48.33707 11.70502 2158 ft 155 kts 82°
2026-05-09 13:21 48.33791 11.71580 2017 ft 158 kts 82°
2026-05-09 13:21 48.33918 11.73228 1806 ft 161 kts 82°
2026-05-09 13:21 48.34047 11.74913 1551 ft 161 kts 81°
2026-05-09 13:21 48.34180 11.76493 1480 ft 132 kts 83°
2026-05-09 13:22 48.34281 11.77823 1479 ft 62 kts 83°
2026-05-09 13:22 48.34317 11.78183 1485 ft 45 kts 75°
2026-05-09 13:22 48.34448 11.78499 1481 ft 20 kts 52°
2026-05-09 13:23 48.34529 11.78661 1485 ft 0 kts 53°
2026-05-09 13:24 48.34540 11.78683 1476 ft 8 kts 52°
2026-05-09 13:25 48.34615 11.78741 1481 ft 14 kts
2026-05-09 13:25 48.34667 11.78732 1482 ft 0 kts 353°
2026-05-09 13:27 48.34679 11.78730 1482 ft 6 kts 354°
2026-05-09 13:27 48.34724 11.78666 1476 ft 13 kts 275°
2026-05-09 13:27 48.34710 11.78505 1477 ft 13 kts 263°
2026-05-09 13:28 48.34700 11.78381 1481 ft 8 kts 263°
2026-05-09 13:28 48.34698 11.78346 1476 ft 0 kts 263°
2026-05-09 13:29 48.34697 11.78345 1475 ft 0 kts 263°
2026-05-09 13:29 48.34694 11.78303 1475 ft 6 kts 263°
2026-05-09 13:29 48.34690 11.78244 1485 ft 5 kts 263°
2026-05-09 13:30 48.34683 11.78163 1481 ft 10 kts 263°
2026-05-09 13:30 48.34673 11.78032 1485 ft 11 kts 263°
2026-05-09 13:30 48.34678 11.77922 1485 ft 12 kts 300°
2026-05-09 13:30 48.34731 11.77889 1482 ft 1 kts 355°